SCP
1 0 0 0 0 0 0 0 0 0 0 0 0 -0 0 0 0 0 0 0 0 0 0 0 0 0 0 0 0 0 0 0 0 0 0 0 0 0 0 0 0 0 0
0 0 0 0 0 0 0 0 0 0 0 0 0 0 0 0 0 0 0 0 0 0 0 0 0 0 0 0 0 0 0 0 0 -0 0 0 0 0 0 0 0 0 0
0 0 0 0 0 0 0 0 0 0 0 0 0 0 0 0 0 0 0 0 0 0 0 0 0 0 0 0 0 0 0 0 0 0 0 0 0 0 0 0 0 0 0
0 0 0 0 0 0 0 0 0 0 0 0 0 0 -0 -0 0 0 0 0 0 0 0 0 0 0 0 0 0 0 0 0 0 0 0 0 0 0 0 0 0 0 0
0 0 0 0 0 0 0 0 0 0 0 0 0 0 0 0 0 0 0 0 0 0 0 0 0 0 0 0 0 0 0 0 0 0 0 0 0 0 0 0 0 0 0
0 0 0 0 0 0 0 0 0 0 0 0 0 0 0 0 0 0 0 0 0 0 0 0 0 0 0 0 0 0 0 0 0 0 0 0 0 0 0 0 0 0 0
0 0 0 0 0 0 0 0 0 0 0 0 0 0 0 0 0 0 0 0 0 0 0 0 0 0 0 0 0 0 0 0 0 0 0 0 0 0 0 0 0 0 0
0 0 0 0 0 0 0 0 0 0 0 0 0 0 0 0 0 0 0 0 0 0 0 0 0 0 0 0 0 0 0 0 0 0 0 0 0 0 0 0 0 0 0
0 0 0 0 0 0 0 0 0 0 0 0 0 0 0 0 0 0 0 0 0 0 0 0 0 0 0 0 0 0 0 0 0 0 0 0 0 0 0 0 0 0 0
0 0 0 0 0 0 0 0 0 0 0 0 0 0 0 0 0 0 0 0 0 0 0 0 0 0 0 0 0 0 0 0 0 0 0 0 0 0 0 0 0 0 0
0 0 0 0 0 0 0 0 0 0 0 0 0 0 0 0 0 0 0 0 0 0 0 0 0 0 0 0 0 0 0 0 0 0 0 0 0 0 0 0 0 0 0
0 0 0 0 0 0 0 0 0 0 0 0 0 0 0 0 0 0 0 0 0 0 0 0 0 0 0 0 0 0 0 0 0 0 0 0 0 0 0 0 0 0 0
0 0 0 0 0 0 0 0 0 0 0 0 0 0 0 0 0 0 0 0 0 0 0 0 0 0 0 0 0 0 0 0 0 0 0 0 0 0 0 0 0 0 0
0 0 0 0 0 0 0 0 0 0 0 0 0 0 0 0 0 0 0 0 0 0 0 0 0 0 0 0 0 0 0 0 0 0 0 0 0 0 0 0 0 0 0
0 0 0 0 0 0 0 0 0 0 0 0 0 0 0 0 0 0 0 0 0 0 0 0 0 0 0 0 0 0 0 0 0 0 0 0 0 0 0 0 0 0 0
0 0 0 0 0 0 0 0 0 0 0 0 0 0 0 0 0 0 0 0 0 0 0 0 0 0 0 0 0 0 0 0 0 0 0 0 0 0 0 0 0 0 0
0 0 0 0 0 0 0 0 0 0 0 0 0 0 0 0 0 0 0 0 0 0 0 0 0 0 0 0 0 0 0 0 0 0 0 0 0 0 0 0 0 0 0
0 0 0 0 0 0 0 0 0 0 0 0 0 0 0 0 0 0 0 0 0 0 0 0 0 0 0 0 0 0 0 0 0 0 0 0 0 0 0 0 0 0 0
0 0 0 0 0 0 0 0 0 0 0 0 0 0 0 0 0 0 0 0 0 0 0 0 0 0 0 0 0 0 0 0 0 0 0 0 0 0 0 0 0 0 0
0 0 0 0 0 0 0 0 0 0 0 0 0 0 0 0 0 0 0 0 0 0 0 0 0 0 0 0 0 0 0 0 0 0 0 0 0 0 0 0 0 0 0
0 0 0 0 0 0 0 0 0 0 0 0 0 0 0 0 0 0 0 0 0 0 0 0 0 0 0 0 0 0 0 0 0 0 0 0 0 0 0 0 0 0 0
0 0 0 0 0 0 0 0 0 0 0 0 0 0 0 0 0 0 0 0 0 0 0 0 0 0 0 0 0 0 0 0 0 0 0 0 0 0 0 0 0 0 0
0 0 0 0 0 0 0 0 0 0 0 0 0 0 0 0 0 0 0 0 0 0 0 0 0 0 0 0 0 0 0 0 0 0 0 0 0 0 0 0 0 0 0
0 0 0 0 0 0 0 0 0 0 0 0 0 0 0 0 0 0 0 0 0 0 0 0 0 0 0 0 0 0 0 0 0 0 0 0 0 0 0 0 0 0 0
0 0 0 0 0 0 0 0 0 0 0 0 0 0 0 0 0 0 0 0 0 0 0 0 0 0 0 0 0 0 0 0 0 0 0 0 0 0 0 0 0 0 0
0 0 0 0 0 0 0 0 0 0 0 0 0 0 0 0 0 0 0 0 0 0 0 0 0 0 0 0 0 0 0 0 0 0 0 0 0 0 0 0 0 0 0
Wind_Speed_500mb
42 46 45 36 31 29 28 29 28 20 18 17 24 27 34 33 40 49 52 59 63 63 56 58 54 56 58 58 61 62 65 63 56 74 70 68 66 67 70 69 57 60 65
33 42 37 35 34 29 27 24 25 24 19 17 18 21 31 36 45 52 53 58 55 55 54 65 70 71 71 72 74 73 72 69 66 76 79 69 65 66 69 77 85 92 98
36 32 33 31 32 24 24 24 26 19 18 17 19 14 20 29 29 30 41 58 51 58 62 63 65 66 67 68 74 75 72 74 76 80 79 80 87 84 90 92 91 86 87
46 47 44 40 35 35 33 28 25 21 18 18 24 24 31 26 29 28 25 28 40 42 46 50 49 45 45 42 43 50 60 72 76 79 86 90 87 80 74 77 79 76 77
46 45 44 42 39 38 36 35 33 29 26 26 28 29 29 30 28 27 26 28 27 20 30 32 37 42 39 42 43 45 46 51 53 57 67 73 75 74 69 57 55 48 43
45 42 39 37 34 33 33 33 32 30 29 28 28 28 30 31 29 29 28 32 29 35 37 35 39 35 40 45 44 49 54 60 62 64 67 63 50 55 69 78 83 73 65
47 43 39 40 41 43 42 38 38 36 31 26 26 29 27 26 27 28 29 31 33 36 37 39 37 41 44 49 52 51 54 55 58 61 61 61 61 63 69 70 69 68 69
44 43 38 38 36 35 37 38 35 36 38 33 30 27 24 24 29 31 34 35 39 42 44 44 45 47 50 53 52 51 51 55 58 58 55 52 52 52 54 55 58 58 57
37 38 35 37 35 30 33 35 34 30 30 24 21 18 14 13 13 17 17 17 21 21 19 19 21 23 26 31 37 37 35 34 36 38 35 31 31 30 35 37 34 31 30
40 42 38 31 36 40 35 32 32 28 29 23 11 14 13 11 9 10 12 13 15 12 8 9 20 23 25 24 24 21 19 13 7 8 11 13 15 16 15 15 14 15 13
34 39 41 31 34 28 35 30 30 30 25 27 28 32 28 25 22 16 17 16 15 15 13 15 21 20 16 15 12 11 10 10 5 2 5 9 11 12 14 15 14 13 14
33 32 29 36 39 42 32 36 34 34 33 35 35 42 45 45 43 40 34 29 29 27 30 29 31 29 28 27 26 26 19 16 14 14 13 14 15 16 17 17 17 17 17
36 38 36 31 35 33 32 38 38 36 37 37 35 38 39 39 42 40 37 35 32 31 31 29 25 22 21 21 23 21 18 17 17 18 20 20 22 21 18 18 20 18 24
28 27 26 25 31 32 32 34 34 36 32 33 33 31 30 27 28 28 29 26 25 24 22 17 15 13 13 15 14 13 15 16 18 19 19 19 15 17 19 16 14 12 5
37 41 44 42 41 36 37 39 35 33 28 28 28 28 28 30 31 26 24 22 19 17 14 12 12 12 13 13 14 13 12 12 13 13 12 14 17 14 17 15 15 14 15
30 33 32 33 34 37 38 39 38 33 27 28 26 24 24 24 23 19 17 15 12 8 7 10 12 13 13 13 13 12 11 10 9 10 10 10 13 17 16 18 11 8 15
28 25 25 25 24 23 22 25 27 26 22 19 18 16 15 14 14 10 7 7 4 5 10 13 14 13 13 11 8 8 10 10 9 10 11 11 10 13 11 16 23 15 8
21 22 23 21 21 20 19 20 21 14 15 18 18 16 14 12 10 11 13 8 10 9 10 12 12 12 8 6 10 12 11 8 8 10 12 10 7 11 16 12 15 18 16
21 22 19 20 20 20 18 17 15 13 11 15 18 20 20 16 11 10 10 10 13 14 12 10 7 4 5 10 9 7 15 14 10 11 12 13 8 8 10 14 16 14 18
19 24 18 16 15 14 15 14 14 10 5 6 7 10 16 5 11 11 10 11 9 10 8 4 3 3 3 4 11 11 5 13 10 7 11 12 8 10 10 13 17 14 16
16 18 16 11 13 14 14 15 13 10 9 12 14 14 15 7 7 6 5 5 5 4 4 3 10 8 7 5 7 11 13 13 14 11 13 10 6 9 11 6 15 19 13
9 10 9 7 5 13 12 10 10 10 10 7 10 8 8 5 4 5 7 5 5 4 5 6 10 14 12 10 11 12 16 18 16 16 13 12 6 11 11 6 13 17 21
5 9 9 9 16 12 6 7 10 6 4 3 1 4 4 3 4 7 10 8 10 14 10 12 14 16 13 15 15 20 19 17 18 19 17 16 10 15 12 9 8 13 17
4 7 4 7 10 8 3 9 7 3 4 1 4 9 10 7 10 12 17 15 10 14 15 16 19 17 14 15 19 24 18 16 18 18 18 19 15 17 13 13 7 19 7
2 4 4 4 3 2 3 3 5 6 4 5 8 8 10 7 13 15 21 22 15 14 18 17 19 19 20 19 22 17 16 17 18 19 19 18 18 14 13 15 14 16 12
1 5 5 5 4 6 7 6 7 9 7 11 9 11 14 12 13 21 21 23 21 17 17 18 22 23 19 20 23 21 20 19 20 20 20 20 21 20 19 18 13 16 6
Wind_Direction_500mb
180 187 180 179 178 182 191 195 206 205 207 207 209 210 205 202 203 199 199 205 211 221 223 227 227 237 239 244 252 249 245 244 254 257 262 262 269 269 265 270 262 265 269
172 191 185 171 174 180 191 195 203 194 213 204 194 202 214 209 208 212 215 219 222 221 229 226 230 240 250 250 249 255 257 260 262 264 266 258 249 259 263 265 267 268 268
183 180 168 176 179 176 177 176 186 188 194 187 188 198 205 202 205 206 224 223 227 231 233 236 239 247 252 254 253 253 252 253 257 263 269 268 275 280 282 282 281 282 281
180 173 172 168 170 179 174 181 178 173 162 167 177 177 170 182 200 211 217 231 243 238 243 241 250 253 256 263 260 262 262 260 262 263 267 272 278 283 283 282 283 283 286
180 175 171 169 169 171 173 176 179 171 165 163 181 188 191 193 201 207 209 220 234 244 247 248 244 241 248 252 249 253 262 262 262 263 266 270 270 275 267 266 268 278 281
171 176 181 190 189 191 185 170 171 176 181 185 177 187 194 200 200 199 198 208 216 220 228 204 203 224 236 249 255 257 259 259 261 264 269 272 273 274 276 278 284 287 286
137 145 158 166 172 177 183 188 187 187 186 184 182 188 199 204 209 209 211 222 230 235 245 253 245 243 243 252 257 257 261 264 265 268 272 273 276 277 279 280 281 285 288
123 125 131 143 143 146 160 168 159 168 175 178 184 189 197 210 217 219 222 228 235 241 251 255 257 258 259 260 264 269 273 275 276 277 278 282 283 285 289 291 291 291 291
99 111 110 122 119 122 125 131 133 133 137 134 126 138 147 164 204 222 229 224 230 233 242 253 263 270 274 278 280 280 278 280 285 288 294 302 305 312 312 307 300 295 288
90 95 87 95 100 93 96 99 108 112 109 118 89 92 108 123 153 211 226 218 216 219 238 272 280 289 285 276 276 276 272 284 307 319 324 327 335 343 354 352 344 330 314
82 87 94 92 93 97 96 97 95 95 97 98 99 90 90 91 98 112 125 131 128 133 119 101 88 77 73 75 87 88 89 101 92 43 3 5 16 27 32 36 34 28 22
97 98 107 108 106 105 106 101 94 98 101 103 99 91 85 86 86 88 92 96 104 109 102 92 84 74 71 74 72 74 81 82 72 68 62 52 43 36 35 35 30 26 21
86 93 106 113 107 107 115 110 100 100 100 102 103 98 92 90 88 86 88 92 92 90 86 81 72 63 56 57 57 55 53 53 50 43 39 34 32 28 27 27 23 21 9
103 107 115 114 115 112 105 102 110 111 108 108 102 100 103 105 102 103 102 99 95 94 98 98 88 70 55 54 52 43 38 35 32 34 32 27 27 24 25 32 36 39 5
75 77 82 85 89 102 107 104 102 101 107 110 103 108 107 103 95 89 83 81 79 73 70 72 63 52 51 41 37 37 36 35 29 26 26 21 13 15 13 16 24 26 19
96 89 73 71 79 85 87 91 90 82 82 87 96 100 97 93 95 91 84 79 72 54 38 43 49 53 49 44 35 22 27 25 24 11 7 16 15 12 18 4 8 34 19
104 105 114 115 103 82 73 82 83 83 83 84 81 83 93 100 102 99 97 80 72 36 54 58 61 57 45 37 32 20 15 33 24 10 3 25 32 11 9 22 354 6 13
99 103 103 102 101 101 103 91 80 61 77 74 76 77 89 100 106 111 93 70 87 81 80 80 73 71 56 27 22 15 11 16 29 11 1 5 40 19 356 14 350 358 23
88 75 75 80 83 81 82 87 93 95 78 67 56 50 53 65 95 123 124 100 84 77 69 66 76 79 63 5 16 32 358 354 17 6 349 352 14 20 3 3 348 360 353
77 92 83 77 78 82 91 84 81 71 41 76 91 108 99 19 37 56 82 99 107 107 89 24 334 345 19 58 353 342 299 316 329 322 326 332 11 8 351 357 341 350 356
42 58 72 74 91 90 93 95 96 87 29 49 73 98 110 81 56 41 35 83 94 83 103 339 321 316 295 303 277 302 314 300 306 308 308 320 12 357 339 2 335 328 331
65 62 75 95 117 108 83 74 81 90 96 31 20 67 105 102 59 333 332 356 341 315 284 273 281 303 320 312 308 296 289 301 311 319 323 316 318 303 316 335 325 338 327
48 85 63 50 61 59 98 147 131 103 61 82 20 323 322 325 256 264 301 309 314 317 317 290 302 304 320 305 304 305 318 324 319 322 328 316 314 304 312 298 309 308 329
93 81 30 358 156 176 124 12 35 27 177 242 312 322 322 325 316 318 309 313 307 296 315 311 308 303 303 297 300 305 318 315 314 319 318 317 313 321 332 338 325 322 310
138 105 184 210 189 15 79 238 242 242 268 253 253 255 278 287 290 296 299 311 312 293 306 310 306 307 312 307 295 305 299 305 308 311 315 316 310 319 305 298 297 311 333
236 171 179 171 216 201 210 215 255 279 268 264 279 285 289 290 293 292 299 304 312 324 311 307 305 306 308 290 299 302 296 305 305 304 305 302 298 304 305 307 299 300 317
Wind_Speed_850mb
42 46 45 36 31 29 28 29 28 20 18 17 24 27 34 33 40 49 52 59 63 63 56 58 54 56 58 58 61 62 65 63 56 74 70 68 66 67 70 69 57 60 65
33 42 37 35 34 29 27 24 25 24 19 17 18 21 31 36 45 52 53 58 55 55 54 65 70 71 71 72 74 73 72 69 66 76 79 69 65 66 69 77 85 92 98
36 32 33 31 32 24 24 24 26 19 18 17 19 14 20 29 29 30 41 58 51 58 62 63 65 66 67 68 74 75 72 74 76 80 79 80 87 84 90 92 91 86 87
46 47 44 40 35 35 33 28 25 21 18 18 24 24 31 26 29 28 25 28 40 42 46 50 49 45 45 42 43 50 60 72 76 79 86 90 87 80 74 77 79 76 77
46 45 44 42 39 38 36 35 33 29 26 26 28 29 29 30 28 27 26 28 27 20 30 32 37 42 39 42 43 45 46 51 53 57 67 73 75 74 69 57 55 48 43
45 42 39 37 34 33 33 33 32 30 29 28 28 28 30 31 29 29 28 32 29 35 37 35 39 35 40 45 44 49 54 60 62 64 67 63 50 55 69 78 83 73 65
47 43 39 40 41 43 42 38 38 36 31 26 26 29 27 26 27 28 29 31 33 36 37 39 37 41 44 49 52 51 54 55 58 61 61 61 61 63 69 70 69 68 69
44 43 38 38 36 35 37 38 35 36 38 33 30 27 24 24 29 31 34 35 39 42 44 44 45 47 50 53 52 51 51 55 58 58 55 52 52 52 54 55 58 58 57
37 38 35 37 35 30 33 35 34 30 30 24 21 18 14 13 13 17 17 17 21 21 19 19 21 23 26 31 37 37 35 34 36 38 35 31 31 30 35 37 34 31 30
40 42 38 31 36 40 35 32 32 28 29 23 11 14 13 11 9 10 12 13 15 12 8 9 20 23 25 24 24 21 19 13 7 8 11 13 15 16 15 15 14 15 13
34 39 41 31 34 28 35 30 30 30 25 27 28 32 28 25 22 16 17 16 15 15 13 15 21 20 16 15 12 11 10 10 5 2 5 9 11 12 14 15 14 13 14
33 32 29 36 39 42 32 36 34 34 33 35 35 42 45 45 43 40 34 29 29 27 30 29 31 29 28 27 26 26 19 16 14 14 13 14 15 16 17 17 17 17 17
36 38 36 31 35 33 32 38 38 36 37 37 35 38 39 39 42 40 37 35 32 31 31 29 25 22 21 21 23 21 18 17 17 18 20 20 22 21 18 18 20 18 24
28 27 26 25 31 32 32 34 34 36 32 33 33 31 30 27 28 28 29 26 25 24 22 17 15 13 13 15 14 13 15 16 18 19 19 19 15 17 19 16 14 12 5
37 41 44 42 41 36 37 39 35 33 28 28 28 28 28 30 31 26 24 22 19 17 14 12 12 12 13 13 14 13 12 12 13 13 12 14 17 14 17 15 15 14 15
30 33 32 33 34 37 38 39 38 33 27 28 26 24 24 24 23 19 17 15 12 8 7 10 12 13 13 13 13 12 11 10 9 10 10 10 13 17 16 18 11 8 15
28 25 25 25 24 23 22 25 27 26 22 19 18 16 15 14 14 10 7 7 4 5 10 13 14 13 13 11 8 8 10 10 9 10 11 11 10 13 11 16 23 15 8
21 22 23 21 21 20 19 20 21 14 15 18 18 16 14 12 10 11 13 8 10 9 10 12 12 12 8 6 10 12 11 8 8 10 12 10 7 11 16 12 15 18 16
21 22 19 20 20 20 18 17 15 13 11 15 18 20 20 16 11 10 10 10 13 14 12 10 7 4 5 10 9 7 15 14 10 11 12 13 8 8 10 14 16 14 18
19 24 18 16 15 14 15 14 14 10 5 6 7 10 16 5 11 11 10 11 9 10 8 4 3 3 3 4 11 11 5 13 10 7 11 12 8 10 10 13 17 14 16
16 18 16 11 13 14 14 15 13 10 9 12 14 14 15 7 7 6 5 5 5 4 4 3 10 8 7 5 7 11 13 13 14 11 13 10 6 9 11 6 15 19 13
9 10 9 7 5 13 12 10 10 10 10 7 10 8 8 5 4 5 7 5 5 4 5 6 10 14 12 10 11 12 16 18 16 16 13 12 6 11 11 6 13 17 21
5 9 9 9 16 12 6 7 10 6 4 3 1 4 4 3 4 7 10 8 10 14 10 12 14 16 13 15 15 20 19 17 18 19 17 16 10 15 12 9 8 13 17
4 7 4 7 10 8 3 9 7 3 4 1 4 9 10 7 10 12 17 15 10 14 15 16 19 17 14 15 19 24 18 16 18 18 18 19 15 17 13 13 7 19 7
2 4 4 4 3 2 3 3 5 6 4 5 8 8 10 7 13 15 21 22 15 14 18 17 19 19 20 19 22 17 16 17 18 19 19 18 18 14 13 15 14 16 12
1 5 5 5 4 6 7 6 7 9 7 11 9 11 14 12 13 21 21 23 21 17 17 18 22 23 19 20 23 21 20 19 20 20 20 20 21 20 19 18 13 16 6
Wind_Direction_850mb
180 187 180 179 178 182 191 195 206 205 207 207 209 210 205 202 203 199 199 205 211 221 223 227 227 237 239 244 252 249 245 244 254 257 262 262 269 269 265 270 262 265 269
172 191 185 171 174 180 191 195 203 194 213 204 194 202 214 209 208 212 215 219 222 221 229 226 230 240 250 250 249 255 257 260 262 264 266 258 249 259 263 265 267 268 268
183 180 168 176 179 176 177 176 186 188 194 187 188 198 205 202 205 206 224 223 227 231 233 236 239 247 252 254 253 253 252 253 257 263 269 268 275 280 282 282 281 282 281
180 173 172 168 170 179 174 181 178 173 162 167 177 177 170 182 200 211 217 231 243 238 243 241 250 253 256 263 260 262 262 260 262 263 267 272 278 283 283 282 283 283 286
180 175 171 169 169 171 173 176 179 171 165 163 181 188 191 193 201 207 209 220 234 244 247 248 244 241 248 252 249 253 262 262 262 263 266 270 270 275 267 266 268 278 281
171 176 181 190 189 191 185 170 171 176 181 185 177 187 194 200 200 199 198 208 216 220 228 204 203 224 236 249 255 257 259 259 261 264 269 272 273 274 276 278 284 287 286
137 145 158 166 172 177 183 188 187 187 186 184 182 188 199 204 209 209 211 222 230 235 245 253 245 243 243 252 257 257 261 264 265 268 272 273 276 277 279 280 281 285 288
123 125 131 143 143 146 160 168 159 168 175 178 184 189 197 210 217 219 222 228 235 241 251 255 257 258 259 260 264 269 273 275 276 277 278 282 283 285 289 291 291 291 291
99 111 110 122 119 122 125 131 133 133 137 134 126 138 147 164 204 222 229 224 230 233 242 253 263 270 274 278 280 280 278 280 285 288 294 302 305 312 312 307 300 295 288
90 95 87 95 100 93 96 99 108 112 109 118 89 92 108 123 153 211 226 218 216 219 238 272 280 289 285 276 276 276 272 284 307 319 324 327 335 343 354 352 344 330 314
82 87 94 92 93 97 96 97 95 95 97 98 99 90 90 91 98 112 125 131 128 133 119 101 88 77 73 75 87 88 89 101 92 43 3 5 16 27 32 36 34 28 22
97 98 107 108 106 105 106 101 94 98 101 103 99 91 85 86 86 88 92 96 104 109 102 92 84 74 71 74 72 74 81 82 72 68 62 52 43 36 35 35 30 26 21
86 93 106 113 107 107 115 110 100 100 100 102 103 98 92 90 88 86 88 92 92 90 86 81 72 63 56 57 57 55 53 53 50 43 39 34 32 28 27 27 23 21 9
103 107 115 114 115 112 105 102 110 111 108 108 102 100 103 105 102 103 102 99 95 94 98 98 88 70 55 54 52 43 38 35 32 34 32 27 27 24 25 32 36 39 5
75 77 82 85 89 102 107 104 102 101 107 110 103 108 107 103 95 89 83 81 79 73 70 72 63 52 51 41 37 37 36 35 29 26 26 21 13 15 13 16 24 26 19
96 89 73 71 79 85 87 91 90 82 82 87 96 100 97 93 95 91 84 79 72 54 38 43 49 53 49 44 35 22 27 25 24 11 7 16 15 12 18 4 8 34 19
104 105 114 115 103 82 73 82 83 83 83 84 81 83 93 100 102 99 97 80 72 36 54 58 61 57 45 37 32 20 15 33 24 10 3 25 32 11 9 22 354 6 13
99 103 103 102 101 101 103 91 80 61 77 74 76 77 89 100 106 111 93 70 87 81 80 80 73 71 56 27 22 15 11 16 29 11 1 5 40 19 356 14 350 358 23
88 75 75 80 83 81 82 87 93 95 78 67 56 50 53 65 95 123 124 100 84 77 69 66 76 79 63 5 16 32 358 354 17 6 349 352 14 20 3 3 348 360 353
77 92 83 77 78 82 91 84 81 71 41 76 91 108 99 19 37 56 82 99 107 107 89 24 334 345 19 58 353 342 299 316 329 322 326 332 11 8 351 357 341 350 356
42 58 72 74 91 90 93 95 96 87 29 49 73 98 110 81 56 41 35 83 94 83 103 339 321 316 295 303 277 302 314 300 306 308 308 320 12 357 339 2 335 328 331
65 62 75 95 117 108 83 74 81 90 96 31 20 67 105 102 59 333 332 356 341 315 284 273 281 303 320 312 308 296 289 301 311 319 323 316 318 303 316 335 325 338 327
48 85 63 50 61 59 98 147 131 103 61 82 20 323 322 325 256 264 301 309 314 317 317 290 302 304 320 305 304 305 318 324 319 322 328 316 314 304 312 298 309 308 329
93 81 30 358 156 176 124 12 35 27 177 242 312 322 322 325 316 318 309 313 307 296 315 311 308 303 303 297 300 305 318 315 314 319 318 317 313 321 332 338 325 322 310
138 105 184 210 189 15 79 238 242 242 268 253 253 255 278 287 290 296 299 311 312 293 306 310 306 307 312 307 295 305 299 305 308 311 315 316 310 319 305 298 297 311 333
236 171 179 171 216 201 210 215 255 279 268 264 279 285 289 290 293 292 299 304 312 324 311 307 305 306 308 290 299 302 296 305 305 304 305 302 298 304 305 307 299 300 317